Location: LDNL
(36.4545°S, 141.6685°E)
Time: 00:30:42
(UTC+11:00)

deb Explorer IX - Visible Passes

Search period start: 06 February 2023 00:00
Search period end: 16 February 2023 00:00
Orbit: 534 x 1048 km, 38.8° (Epoch: 04 February)

Date Brightness Start Highest point End Pass type
(mag) Time Alt. Az. Time Alt. Az. Time Alt. Az.
06 Feb ? 22:18:49 10° W 22:24:36 28° NW 22:28:00 19° N visible
07 Feb ? 21:45:41 10° W 21:51:41 31° NW 21:56:55 13° NNE visible
08 Feb ? 21:12:33 10° W 21:18:43 34° NW 21:24:49 10° NNE visible
10 Feb ? 21:56:40 10° WNW 21:58:19 11° NW 21:59:57 10° NNW visible
11 Feb ? 21:22:32 10° WNW 21:25:18 13° NW 21:28:06 10° NNW visible
